Theta_e
346 338 337 339 339 342 344 342 342 342 342 337 338 339 337 334 333 332 334 333 334 338 337 334 331 326 325 326 327 327 327 326 327 330 334 333 330 331 335 337 337 333 330
346 341 337 338 338 340 342 342 342 342 341 338 338 339 336 334 333 332 332 332 335 336 334 332 333 328 325 324 325 326 327 327 328 330 333 335 332 329 332 331 332 330 330
347 341 337 338 337 338 342 343 342 342 341 339 340 339 335 332 330 333 334 337 340 340 339 337 334 327 326 325 324 324 324 325 329 332 336 339 335 333 331 332 334 336 331
347 344 340 339 338 336 338 342 342 342 341 341 340 336 332 333 336 338 339 339 339 338 337 336 337 330 327 326 325 324 323 326 327 331 337 337 326 338 333 334 334 337 337
346 345 345 341 340 337 337 338 341 341 341 340 337 333 335 336 337 337 337 337 337 336 336 336 336 331 331 331 329 326 325 329 337 339 336 336 337 337 337 338 336 333 333
344 343 343 343 343 340 337 337 337 338 338 336 334 337 337 337 337 337 337 335 335 335 335 334 330 329 329 330 331 331 329 336 338 337 338 336 335 336 336 334 334 334 333
344 343 341 342 342 342 338 337 337 336 335 334 338 338 337 337 336 335 334 335 334 334 331 324 320 318 316 319 327 331 336 336 336 336 334 334 335 335 333 332 331 330 330
344 343 341 340 340 340 340 338 337 336 336 337 336 337 337 336 335 334 334 333 330 326 320 315 313 311 310 312 321 333 335 333 334 332 332 332 333 332 330 329 328 327 327
344 344 341 338 339 339 339 339 339 338 337 335 337 337 336 335 334 333 332 329 325 318 312 309 309 309 309 309 317 333 331 330 331 329 328 329 331 329 327 325 324 324 324
343 342 340 340 340 339 339 339 339 338 337 336 337 336 334 333 333 332 329 324 316 310 309 309 309 310 310 310 316 325 328 326 329 327 325 328 327 326 324 323 321 320 321
342 341 340 340 341 341 340 340 339 338 336 336 336 334 334 333 332 328 322 321 312 310 309 310 310 311 312 312 315 322 325 325 324 323 323 325 323 322 320 319 319 318 318
341 342 341 340 339 339 341 339 338 338 337 336 335 333 333 331 328 323 322 318 311 310 309 309 310 313 317 318 320 323 323 324 322 321 322 322 320 318 317 316 316 315 315
342 340 340 340 337 337 337 339 339 338 337 336 334 333 332 331 328 324 322 316 314 312 310 310 310 315 321 318 318 319 321 323 322 321 320 319 317 316 316 314 314 314 315
341 343 341 341 339 340 340 341 340 339 337 336 333 333 331 330 326 322 322 317 318 313 316 312 309 318 320 318 317 319 320 323 322 320 316 316 315 314 314 314 314 313 313
341 340 342 343 344 342 342 339 337 336 336 333 332 331 329 328 326 323 324 319 318 315 316 315 311 316 319 319 319 318 321 320 319 317 314 312 312 312 312 313 314 313 312
340 339 339 342 343 342 340 339 336 336 335 333 331 331 328 326 325 324 324 321 319 316 316 315 314 318 318 318 318 318 320 318 317 314 311 310 310 308 309 312 313 314 313
341 340 339 339 340 339 338 336 335 334 333 331 330 329 327 324 323 323 322 319 316 315 315 315 316 317 318 317 317 317 318 317 315 313 311 308 302 303 307 309 311 312 314
339 342 340 340 338 337 338 337 335 333 331 330 328 328 326 324 322 323 321 317 315 314 314 315 315 317 317 316 316 316 315 316 313 310 307 305 300 297 299 304 308 309 311
338 339 341 339 338 337 336 335 335 333 331 328 327 326 327 324 321 321 318 317 315 314 314 315 315 317 317 316 316 315 314 314 313 311 308 306 303 301 300 299 299 307 308
331 336 341 339 337 336 334 333 333 332 330 328 326 325 325 324 321 319 318 315 314 314 314 314 315 316 317 316 315 313 312 312 310 307 305 303 302 302 302 301 300 298 303
329 332 338 337 336 335 334 332 331 330 329 327 327 325 323 322 320 318 316 315 314 315 314 314 314 315 317 316 314 313 312 310 307 304 303 303 302 301 301 300 301 300 299
330 331 338 337 335 334 331 330 329 327 325 323 324 323 323 321 320 317 316 316 316 315 314 313 313 315 317 315 313 311 309 308 306 304 303 302 302 301 299 299 299 300 298
330 331 331 331 331 332 329 327 326 324 322 321 320 320 319 319 319 318 316 316 316 314 314 313 312 314 317 315 312 310 309 308 306 305 303 302 301 300 299 298 298 298 297
326 327 327 327 328 327 324 322 322 320 318 317 317 316 316 316 316 315 314 315 313 314 313 313 312 313 316 313 312 309 308 308 306 304 303 302 302 300 298 297 297 297 296
322 323 323 322 323 322 320 320 319 317 316 315 314 312 313 313 311 311 312 310 310 309 309 311 312 311 313 312 311 309 310 309 305 304 303 302 301 301 299 297 296 297 296
318 320 321 321 320 318 316 315 314 313 312 311 309 308 308 308 308 308 307 307 308 308 307 308 309 310 311 311 311 310 309 308 306 305 303 301 301 299 299 297 296 296 295
Wind_Speed
19 24 21 18 16 15 16 18 18 18 16 15 12 12 13 10 10 10 9 9 8 9 9 8 6 5 6 6 7 7 7 7 9 9 10 11 12 12 15 20 12 14 14
25 24 23 20 18 17 16 17 18 18 17 16 14 12 12 11 10 9 9 8 7 6 5 5 5 5 6 6 6 5 5 5 7 8 9 7 10 12 12 11 12 14 14
26 24 23 20 18 17 17 17 18 18 18 17 15 13 12 13 11 9 9 8 7 7 5 4 3 4 5 5 5 4 3 4 3 4 6 6 9 11 12 12 13 13 13
22 22 22 21 20 18 17 17 18 18 18 18 17 14 13 13 13 9 10 10 7 5 3 4 3 3 4 4 4 4 4 3 4 5 5 6 7 9 12 12 11 13 11
18 20 19 22 20 19 18 18 18 17 17 18 18 17 15 13 13 13 10 8 5 2 4 2 2 2 3 3 2 4 5 6 8 7 8 11 15 12 13 13 12 9 9
15 18 17 19 17 17 17 17 16 16 16 15 16 16 14 12 11 12 13 9 7 5 5 4 1 2 2 3 3 5 7 9 12 12 15 13 14 13 15 12 13 12 12
18 20 18 20 18 16 17 17 16 15 16 18 17 15 13 12 11 11 10 9 9 8 5 4 3 3 3 5 6 8 11 14 12 15 16 17 18 18 17 13 14 13 13
21 19 19 21 19 17 18 19 18 17 17 16 14 14 13 13 12 10 11 10 9 8 7 5 5 4 4 5 9 13 14 13 7 8 14 14 13 14 16 16 16 15 11
20 21 19 21 20 19 19 19 20 19 19 18 18 16 14 13 11 11 10 9 9 8 7 7 6 6 6 7 9 13 10 7 10 14 12 10 13 16 18 16 14 13 7
15 20 19 19 19 21 20 20 19 20 20 20 19 17 15 12 11 11 9 9 9 9 9 8 8 7 7 9 10 12 10 7 18 16 15 14 14 16 15 12 14 14 14
12 18 20 21 20 19 18 21 20 21 20 19 18 16 14 13 14 11 9 10 10 10 9 9 8 8 9 10 13 14 9 8 19 17 16 12 11 12 13 13 14 15 14
16 22 22 20 21 22 20 21 23 24 22 21 19 16 12 11 9 10 13 13 14 14 12 11 9 9 9 14 18 13 6 14 16 16 15 16 15 15 15 15 14 14 14
18 20 21 23 24 23 26 25 25 25 24 23 21 18 14 15 14 16 13 13 13 12 13 13 14 17 15 12 13 4 13 16 22 21 18 17 15 15 15 15 14 15 15
19 18 22 24 26 22 23 22 20 24 23 22 22 22 22 20 17 15 14 15 13 14 13 14 17 15 10 15 12 12 13 21 24 26 22 18 14 15 14 14 15 15 14
21 21 20 22 23 22 20 19 22 21 27 24 24 23 23 27 23 19 17 17 16 15 17 15 16 10 13 11 10 14 12 22 25 25 22 19 17 15 14 14 14 14 13
18 20 22 18 23 19 22 18 20 24 27 26 24 24 24 24 21 21 19 21 20 19 19 18 16 16 14 14 13 14 16 17 18 22 19 14 8 14 15 15 14 14 11
25 26 27 26 19 20 18 19 19 20 20 23 25 24 26 25 23 22 23 23 22 20 18 20 20 18 18 18 17 16 15 17 16 14 11 11 11 13 16 15 15 15 15
13 25 29 28 31 26 22 19 21 21 23 22 22 26 27 28 28 27 24 22 24 22 21 21 20 21 20 20 20 18 16 17 21 17 11 9 11 13 14 15 16 15 16
19 19 32 28 26 29 25 21 21 21 21 20 22 27 28 29 30 25 25 26 27 23 24 22 23 23 24 23 22 20 19 18 18 18 17 16 16 6 13 13 14 15 16
5 3 30 25 22 23 22 23 20 24 23 20 23 23 25 26 30 30 25 26 28 25 25 25 25 25 26 26 24 23 20 18 16 16 13 11 12 9 7 9 10 12 14
5 6 20 20 18 17 21 21 16 15 17 20 19 21 24 25 26 26 25 27 29 30 26 26 25 26 25 28 23 24 22 21 17 18 17 14 13 11 11 11 7 13 13
10 6 10 9 6 10 16 22 19 17 17 19 20 20 23 30 26 27 26 23 29 29 25 28 30 25 24 32 20 18 4 11 17 18 18 18 14 12 11 11 13 14 8
12 11 8 4 3 8 11 16 16 17 17 16 19 22 19 20 20 25 24 24 22 30 27 31 33 30 22 30 33 16 5 3 11 18 19 17 15 17 14 13 13 14 16
9 8 7 4 1 4 10 12 15 16 14 18 18 18 19 21 23 22 19 24 16 25 23 28 33 33 25 25 30 30 16 13 5 4 18 19 15 14 15 14 14 13 10
8 5 3 1 3 7 10 14 15 16 20 21 22 20 20 22 19 16 21 17 16 13 13 9 19 27 16 27 25 27 8 19 24 10 10 16 15 15 14 15 15 14 20
5 4 4 5 7 8 9 10 12 12 17 18 19 18 16 17 18 18 18 19 20 18 13 14 14 15 9 12 19 24 14 12 13 16 10 16 14 19 16 17 17 19 20
Wind_Direction
127 147 154 149 138 133 131 141 146 152 154 153 149 145 134 125 115 110 107 104 101 98 98 96 94 91 88 84 80 80 85 91 95 93 92 92 92 94 80 74 74 63 59
137 153 157 152 146 141 139 144 148 151 154 156 156 155 140 131 123 117 110 104 98 97 97 101 101 90 94 94 82 78 83 94 103 114 115 108 105 103 94 79 66 59 57
138 155 157 155 152 147 144 148 150 152 157 160 158 157 149 140 134 126 121 118 113 105 97 80 68 102 100 101 98 84 80 95 116 101 133 104 82 78 85 75 68 62 56
138 145 158 159 159 157 155 155 155 159 163 164 162 161 154 141 129 128 134 133 135 127 103 87 79 95 104 106 107 98 82 44 17 65 37 158 92 87 84 76 72 70 57
136 156 160 164 167 165 165 161 163 166 168 166 165 160 153 149 153 156 159 155 160 155 110 127 97 112 119 114 112 105 92 75 48 55 103 101 99 85 92 89 74 78 58
152 159 164 165 167 170 169 167 170 171 170 169 164 159 153 163 165 188 180 191 154 156 162 169 154 158 142 130 120 115 101 90 65 82 80 73 77 72 75 76 74 72 69
158 158 165 172 170 174 176 176 176 179 173 170 164 165 167 181 186 186 165 165 167 174 190 190 191 198 172 150 135 126 102 84 106 91 85 79 77 81 82 78 70 63 62
156 151 162 170 173 181 179 181 182 180 175 174 173 181 183 185 187 182 174 185 186 194 187 195 193 195 195 168 148 142 123 105 112 105 96 86 78 80 78 77 70 66 58
144 149 160 168 176 180 183 184 182 181 178 177 180 183 194 198 194 195 195 198 195 195 191 186 185 186 181 168 159 160 154 117 141 107 107 107 101 90 80 76 65 57 46
143 152 159 168 180 185 187 187 185 185 183 185 187 190 199 202 207 210 204 206 198 192 184 181 178 176 168 159 157 159 146 84 130 117 104 114 103 87 78 70 63 61 63
177 177 169 177 181 183 186 189 190 193 192 195 195 203 204 208 205 197 181 209 193 194 188 181 169 163 159 151 153 154 146 104 102 101 114 115 109 90 81 77 74 69 63
187 175 176 184 186 189 185 194 193 194 193 197 198 209 199 200 192 180 198 197 190 191 188 177 166 148 144 146 145 156 152 117 100 96 112 112 100 88 81 80 77 70 67
195 180 185 188 191 199 197 197 190 197 196 195 197 200 185 191 188 193 201 198 190 184 182 177 166 156 151 150 160 217 149 133 132 117 112 109 96 91 87 84 79 77 72
200 202 193 193 196 201 193 190 188 195 193 187 200 199 182 188 194 191 217 199 197 193 185 179 176 171 203 191 199 157 153 147 136 135 123 120 108 90 86 83 80 75 75
182 207 202 195 193 195 185 186 193 188 193 197 200 199 195 194 199 197 201 201 201 198 201 187 186 190 180 169 164 157 135 142 142 139 131 119 116 96 87 85 80 76 76
180 196 213 207 199 189 187 188 199 211 216 215 210 209 206 204 199 198 207 205 206 204 198 191 201 185 180 175 165 172 130 138 144 147 139 124 139 101 94 92 86 71 82
183 192 201 206 199 200 203 206 205 208 208 218 224 222 215 210 202 206 216 209 207 204 203 197 199 182 181 173 172 170 153 143 141 149 156 145 129 110 98 92 87 77 71
198 192 189 194 204 211 207 207 205 208 216 217 228 229 222 215 210 209 209 218 208 206 206 200 191 186 181 173 168 168 165 151 140 145 136 138 132 114 104 99 92 79 75
195 213 174 178 187 201 207 217 214 212 217 226 223 231 228 222 217 218 210 219 209 209 204 202 196 191 182 176 165 168 164 159 146 147 145 149 139 131 97 92 105 91 82
291 179 160 167 179 202 209 216 225 225 226 234 229 234 233 225 220 214 213 220 209 212 200 205 198 201 188 175 168 162 158 156 165 145 146 145 133 128 114 108 90 102 94
22 44 134 156 182 186 201 205 209 217 216 218 225 227 222 214 211 212 215 220 214 207 203 209 201 200 189 176 163 148 158 168 153 152 156 152 148 143 133 117 123 103 98
52 35 120 134 162 197 205 214 211 225 233 236 237 238 230 218 210 211 215 221 214 202 209 207 203 198 193 181 161 135 127 137 160 164 169 157 155 148 136 127 120 132 118
51 39 48 84 192 214 212 209 215 226 233 237 239 241 235 214 212 209 213 224 217 207 214 210 203 199 189 179 166 157 142 181 153 182 164 160 166 153 138 129 126 114 116
64 61 63 53 139 213 225 223 224 221 221 230 232 230 218 211 211 208 221 215 225 210 221 217 207 200 192 178 170 167 156 155 168 165 168 163 176 157 152 142 138 146 150
60 58 67 124 210 227 233 233 237 231 229 229 225 224 215 212 211 219 219 234 230 200 208 190 198 216 202 184 179 175 201 182 171 164 167 154 173 169 153 150 150 142 124
54 5 337 306 286 265 265 250 241 235 240 229 226 225 219 221 229 232 229 229 226 215 203 198 214 196 181 189 188 184 188 180 175 156 149 159 169 159 159 155 160 145 134